Hourly Weather Russkaya

Today, 22 April, Thursday

Time Temperature Precipitation Wind Pressure Humidity
00:00 +9°C° 0 mm 3 mps 757 mmHg 84%
01:00 +8°C° 0 mm 3 mps 757 mmHg 85%
02:00 +8°C° 0 mm 3 mps 758 mmHg 86%
03:00 +7°C° 0 mm 3 mps 758 mmHg 87%
04:00 +7°C° 0 mm 2 mps 758 mmHg 86%
05:00 +7°C° 0 mm 2 mps 758 mmHg 86%
06:00 +7°C° 0 mm 2 mps 759 mmHg 86%
07:00 +9°C° 0 mm 3 mps 759 mmHg 78%
08:00 +11°C° 0 mm 3 mps 759 mmHg 70%
09:00 +13°C° 0 mm 3 mps 759 mmHg 62%
10:00 +14°C° 0 mm 3 mps 759 mmHg 57%
11:00 +17°C° 0 mm 3 mps 759 mmHg 52%
12:00 +18°C° 0 mm 3 mps 759 mmHg 46%
13:00 +18°C° 0 mm 2 mps 759 mmHg 47%
14:00 +18°C° 0 mm 2 mps 759 mmHg 47%
15:00 +17°C° 0 mm 2 mps 759 mmHg 48%
16:00 +17°C° 0 mm 2 mps 759 mmHg 53%
17:00 +16°C° 0 mm 2 mps 759 mmHg 58%
18:00 +16°C° 0 mm 2 mps 759 mmHg 62%
19:00 +15°C° 0 mm 2 mps 759 mmHg 63%
20:00 +14°C° 0 mm 1 mps 759 mmHg 64%
21:00 +14°C° 0 mm 1 mps 759 mmHg 65%
22:00 +14°C° 0 mm 1 mps 759 mmHg 66%
23:00 +13°C° 0 mm 1 mps 759 mmHg 66%

Tomorrow, 23 April, Friday

Time Temperature Precipitation Wind Pressure Humidity
00:00 +13°C° 0 mm 1 mps 759 mmHg 66%
01:00 +13°C° 0.1 mm 1 mps 759 mmHg 69%
02:00 +13°C° 0.1 mm 2 mps 759 mmHg 72%
03:00 +12°C° 0.1 mm 2 mps 759 mmHg 75%
04:00 +12°C° 0.3 mm 2 mps 759 mmHg 80%
05:00 +10°C° 0.3 mm 2 mps 759 mmHg 85%
06:00 +10°C° 0.3 mm 3 mps 759 mmHg 89%
07:00 +10°C° 0.3 mm 3 mps 759 mmHg 86%
08:00 +11°C° 0.3 mm 3 mps 759 mmHg 83%
09:00 +11°C° 0.3 mm 3 mps 759 mmHg 80%
10:00 +11°C° 0.2 mm 3 mps 759 mmHg 77%
11:00 +13°C° 0.2 mm 2 mps 759 mmHg 74%
12:00 +13°C° 0.2 mm 2 mps 759 mmHg 71%
13:00 +14°C° 0.1 mm 2 mps 758 mmHg 68%
14:00 +14°C° 0.1 mm 2 mps 758 mmHg 65%
15:00 +15°C° 0.1 mm 2 mps 758 mmHg 61%
16:00 +15°C° 0 mm 1 mps 757 mmHg 63%
17:00 +15°C° 0 mm 1 mps 757 mmHg 65%
18:00 +15°C° 0 mm 1 mps 757 mmHg 66%
19:00 +13°C° 0 mm 2 mps 757 mmHg 70%
20:00 +12°C° 0 mm 2 mps 756 mmHg 74%
21:00 +10°C° 0 mm 2 mps 756 mmHg 79%
22:00 +10°C° 0 mm 2 mps 756 mmHg 80%
23:00 +9°C° 0 mm 2 mps 756 mmHg 82%

Day after tomorrow, 24 April, Saturday

Time Temperature Precipitation Wind Pressure Humidity
00:00 +9°C° 0 mm 3 mps 755 mmHg 83%
01:00 +9°C° 0 mm 2 mps 755 mmHg 83%
02:00 +9°C° 0 mm 2 mps 755 mmHg 82%
03:00 +9°C° 0 mm 2 mps 754 mmHg 82%
04:00 +9°C° 0 mm 3 mps 754 mmHg 81%
05:00 +9°C° 0 mm 3 mps 754 mmHg 79%
06:00 +9°C° 0 mm 3 mps 754 mmHg 78%
07:00 +10°C° 0 mm 4 mps 754 mmHg 74%
08:00 +10°C° 0 mm 5 mps 754 mmHg 69%
09:00 +12°C° 0 mm 7 mps 754 mmHg 64%
10:00 +12°C° 0.2 mm 7 mps 753 mmHg 61%
11:00 +14°C° 0.2 mm 7 mps 753 mmHg 57%
12:00 +15°C° 0.2 mm 7 mps 753 mmHg 54%
13:00 +14°C° 0.3 mm 7 mps 753 mmHg 62%
14:00 +11°C° 0.3 mm 7 mps 753 mmHg 70%
15:00 +10°C° 0.3 mm 6 mps 753 mmHg 77%
16:00 +10°C° 0 mm 6 mps 753 mmHg 72%
17:00 +10°C° 0 mm 5 mps 753 mmHg 67%
18:00 +11°C° 0 mm 4 mps 753 mmHg 62%
19:00 +10°C° 0 mm 4 mps 754 mmHg 65%
20:00 +9°C° 0 mm 3 mps 754 mmHg 68%
21:00 +8°C° 0 mm 3 mps 754 mmHg 72%
22:00 +7°C° 0 mm 3 mps 754 mmHg 72%
23:00 +7°C° 0 mm 3 mps 755 mmHg 73%

25 April, Sunday

Time Temperature Precipitation Wind Pressure Humidity
00:00 +5°C° 0 mm 3 mps 755 mmHg 74%
01:00 +5°C° 0 mm 4 mps 755 mmHg 75%
02:00 +3°C° 0 mm 5 mps 755 mmHg 76%
03:00 +3°C° 0 mm 5 mps 756 mmHg 78%
04:00 +2°C° 0 mm 5 mps 756 mmHg 77%
05:00 +2°C° 0 mm 5 mps 756 mmHg 77%
06:00 +1°C° 0 mm 4 mps 757 mmHg 76%
07:00 +3°C° 0 mm 5 mps 757 mmHg 71%
08:00 +5°C° 0 mm 5 mps 757 mmHg 66%
09:00 +6°C° 0 mm 5 mps 757 mmHg 61%
10:00 +8°C° 0 mm 5 mps 757 mmHg 56%
11:00 +9°C° 0 mm 5 mps 757 mmHg 50%
12:00 +10°C° 0 mm 5 mps 757 mmHg 45%
13:00 +12°C° 0 mm 5 mps 757 mmHg 42%
14:00 +12°C° 0 mm 4 mps 757 mmHg 39%
15:00 +13°C° 0 mm 4 mps 757 mmHg 36%
16:00 +12°C° 0 mm 4 mps 757 mmHg 39%
17:00 +12°C° 0 mm 3 mps 757 mmHg 42%
18:00 +12°C° 0 mm 2 mps 757 mmHg 45%
19:00 +10°C° 0 mm 2 mps 757 mmHg 47%
20:00 +10°C° 0 mm 1 mps 757 mmHg 49%
21:00 +9°C° 0 mm 1 mps 758 mmHg 52%
22:00 +9°C° 0 mm 1 mps 758 mmHg 52%
23:00 +9°C° 0 mm 1 mps 757 mmHg 52%

26 April, Monday

Time Temperature Precipitation Wind Pressure Humidity
00:00 +9°C° 0 mm 1 mps 757 mmHg 52%
01:00 +8°C° 0 mm 1 mps 757 mmHg 53%
02:00 +8°C° 0 mm 1 mps 757 mmHg 54%
03:00 +8°C° 0 mm 1 mps 757 mmHg 55%
04:00 +8°C° 0 mm 1 mps 757 mmHg 56%
05:00 +8°C° 0 mm 1 mps 756 mmHg 58%
06:00 +8°C° 0 mm 1 mps 756 mmHg 59%
07:00 +9°C° 0 mm 1 mps 756 mmHg 56%
08:00 +9°C° 0 mm 2 mps 756 mmHg 53%
09:00 +12°C° 0 mm 2 mps 756 mmHg 50%
10:00 +12°C° 0 mm 2 mps 756 mmHg 48%
11:00 +12°C° 0 mm 3 mps 755 mmHg 46%
12:00 +13°C° 0 mm 3 mps 755 mmHg 45%
13:00 +13°C° 0 mm 3 mps 755 mmHg 44%
14:00 +13°C° 0 mm 3 mps 754 mmHg 44%
15:00 +13°C° 0 mm 3 mps 754 mmHg 44%
16:00 +13°C° 0 mm 3 mps 754 mmHg 46%
17:00 +13°C° 0 mm 3 mps 753 mmHg 48%
18:00 +13°C° 0 mm 3 mps 753 mmHg 49%
19:00 +11°C° 0 mm 3 mps 753 mmHg 56%
20:00 +10°C° 0 mm 3 mps 753 mmHg 63%
21:00 +7°C° 0 mm 4 mps 753 mmHg 70%
22:00 +7°C° 0 mm 4 mps 754 mmHg 72%
23:00 +6°C° 0 mm 4 mps 754 mmHg 75%

27 April, Tuesday

Time Temperature Precipitation Wind Pressure Humidity
00:00 +6°C° 0 mm 5 mps 754 mmHg 77%
01:00 +5°C° 0 mm 4 mps 754 mmHg 80%
02:00 +4°C° 0 mm 3 mps 754 mmHg 84%
03:00 +4°C° 0 mm 2 mps 754 mmHg 87%
04:00 +4°C° 0 mm 2 mps 754 mmHg 85%
05:00 +4°C° 0 mm 2 mps 754 mmHg 83%
06:00 +4°C° 0 mm 2 mps 754 mmHg 80%
07:00 +5°C° 0 mm 4 mps 755 mmHg 72%
08:00 +6°C° 0 mm 5 mps 755 mmHg 63%
09:00 +8°C° 0 mm 6 mps 755 mmHg 54%
10:00 +8°C° 0 mm 6 mps 755 mmHg 50%
11:00 +8°C° 0 mm 6 mps 755 mmHg 47%
12:00 +9°C° 0 mm 7 mps 755 mmHg 43%
13:00 +9°C° 0 mm 7 mps 755 mmHg 42%
14:00 +9°C° 0 mm 7 mps 755 mmHg 41%
15:00 +9°C° 0 mm 7 mps 755 mmHg 40%
16:00 +9°C° 0.2 mm 7 mps 755 mmHg 46%
17:00 +8°C° 0.2 mm 6 mps 755 mmHg 53%
18:00 +7°C° 0.2 mm 5 mps 756 mmHg 59%
19:00 +6°C° 0 mm 5 mps 756 mmHg 62%
20:00 +5°C° 0 mm 4 mps 757 mmHg 64%
21:00 +4°C° 0 mm 3 mps 757 mmHg 67%
22:00 +4°C° 0 mm 3 mps 757 mmHg 68%
23:00 +3°C° 0 mm 3 mps 758 mmHg 69%
Show more